This demonstration page uses our WeatherBlox Daily Observations layout. Learn more.

Left ArrowRight Arrow

44.89941, -97.11507

Hourly Observations for October 4, 2019

Temp ( °F °C ) Dew Point ( °F °C ) Humidity (%) Winds ( mph kmh ) Pressure ( in mb ) Visibility ( mi km ) Precip ( " mm )
12:53 am 00:53 Cloudy 39 3.9 35 1.7 86 86 ENE 6 9 30.41 1030 10 16 0.00 0.00
1:53 am 01:53 Cloudy 39 3.9 35 1.7 86 86 VRB 5 7 30.40 1030 10 16 0.00 0.00
2:53 am 02:53 Cloudy 39 3.9 35 1.7 86 86 E 6 9 30.42 1030 10 16 0.00 0.00
3:53 am 03:53 Cloudy 38 3.3 35 1.7 89 89 SSE 10 17 30.41 1030 10 16 0.00 0.00
4:26 am 04:26 Cloudy 38 3.3 35 1.7 89 89 SE 8 13 30.43 1030 10 16 0.00 0.00
4:53 am 04:53 Cloudy 38 3.3 35 1.7 89 89 SSE 12 19 30.42 1030 10 16 0.00 0.00
5:53 am 05:53 Cloudy 38 3.3 35 1.7 89 89 SE 12 19 30.41 1030 10 16 0.00 0.00
6:53 am 06:53 Cloudy 38 3.3 35 1.7 89 89 SE 8 13 30.41 1030 10 16 0.00 0.00
7:53 am 07:53 Cloudy 38 3.3 35 1.7 89 89 SE 9 15 30.39 1029 10 16 0.00 0.00
8:53 am 08:53 Cloudy 38 3.3 35 1.7 89 89 SE 15 24 30.39 1029 10 16 0.00 0.00
9:53 am 09:53 Cloudy 39 3.9 35 1.7 86 86 SSE 13 20 30.39 1029 10 16 0.00 0.00
10:53 am 10:53 Cloudy 39 3.9 36 2.2 89 89 SE 13 20 30.38 1029 10 16 0.00 0.00
11:53 am 11:53 Cloudy 41 5 37 2.8 86 86 SE 12 19 30.35 1028 10 16 0.00 0.00
12:25 pm 12:25 Cloudy 41 5 37 2.8 86 86 SE 14 22 30.34 1028 10 16 0.00 0.00
12:53 pm 12:53 Cloudy 43 6.1 37 2.8 80 80 SSE 16 26 30.32 1027 10 16 0.00 0.00
1:40 pm 13:40 Cloudy 45 7.2 38 3.3 77 77 SE 13 20 30.29 1026 10 16 0.00 0.00
1:53 pm 13:53 Cloudy 45 7.2 38 3.3 77 77 SSE 15 24 30.29 1026 10 16 0.00 0.00
2:34 pm 14:34 Partly Cloudy 47 8.3 39 3.9 74 74 ESE 13 20 30.22 1023 10 16 0.00 0.00
2:53 pm 14:53 Mostly Sunny 49 9.4 40 4.4 71 71 SE 16 26 30.22 1023 10 16 0.00 0.00
3:53 pm 15:53 Mostly Cloudy 51 10.6 40 4.4 66 66 ESE 13 20 30.19 1022 10 16 0.00 0.00
4:53 pm 16:53 Mostly Cloudy 51 10.6 41 5 69 69 SE 14 22 30.16 1021 10 16 0.00 0.00
5:53 pm 17:53 Cloudy 50 10 41 5 71 71 SE 14 22 30.14 1021 10 16 0.00 0.00
6:53 pm 18:53 Cloudy 49 9.4 41 5 74 74 ESE 13 20 30.11 1020 10 16 0.00 0.00
7:53 pm 19:53 Cloudy 47 8.3 42 5.6 83 83 SE 12 19 30.09 1019 10 16 0.00 0.00
8:53 pm 20:53 Cloudy 47 8.3 41 5 80 80 SE 16 26 30.09 1019 10 16 0.00 0.00
9:53 pm 21:53 Cloudy 47 8.3 43 6.1 86 86 SE 12 19 30.06 1018 9 14 0.00 0.00
10:12 pm 22:12 Cloudy with Light Rain 46 7.8 44 6.7 93 93 SE 13 20 30.02 1017 5 8 0.00 0.00
10:36 pm 22:36 Cloudy 46 7.8 44 6.7 93 93 SE 10 17 30.01 1016 10 16 0.00 0.00
10:53 pm 22:53 Cloudy 47 8.3 44 6.7 90 90 ESE 13 20 30.01 1016 10 16 0.00 0.00
11:09 pm 23:09 Cloudy with Nearby Thunderstorms 47 8.3 44 6.7 90 90 ESE 14 22 29.98 1015 10 16 0.00 0.00
11:25 pm 23:25 Cloudy with Light Rain 47 8.3 44 6.7 90 90 SE 16 26 29.97 1015 10 16 0.00 0.00
11:35 pm 23:35 Cloudy with Thunderstorms 47 8.3 44 6.7 90 90 SE 14 22 29.96 1015 10 16 0.00 0.00
11:45 pm 23:45 Cloudy with Thunderstorms 47 8.3 44 6.7 90 90 ESE 15 24 29.95 1014 10 16 0.00 0.00
11:53 pm 23:53 Cloudy with Thunderstorms 47 8.3 44 6.7 90 90 SE 16 26 29.97 1015 10 16 0.00 0.00

Powered by AerisWeather